Location: ???????????
(54.5822°N, 39.1075°E)
Time: 06:15:52
(UTC+00:00)

NOSS 2-1 (C) - Pass Details

Date: 19 May 2025
Orbit: 378 x 1699 km, 63.3° (Epoch: 15 June)

Event Time Altitude Azimuth Distance (km) Brightness Sun altitude
Exits shadow 21:09:48 23° 230° (SW) 922 4.1 -15.4°
Maximum altitude 21:11:37 88° 313° (NW) 398 2.5 -15.4°
Drops below altitude 10° 21:14:36 10° 50° (NE) 1,405 5.9 -15.4°
Sets 21:16:35 0° 50° (NE) 2,279 7.1 -15.4°
